This demonstration page uses our WeatherBlox Daily Observations layout. Learn more.

Left ArrowRight Arrow

39.01783, -85.05884

Hourly Observations for June 30, 2015

Temp ( °F °C ) Dew Point ( °F °C ) Humidity (%) Winds ( mph kmh ) Pressure ( in mb ) Visibility ( mi km ) Precip ( " mm )
12:52 am 00:52 Partly Cloudy with Mist and Fog 67 19.4 65 18.3 93 93 N N/A 29.83 1010 6 10 N/A
1:52 am 01:52 Mostly Clear with Mist and Fog 66 18.9 64 17.8 93 93 SSW 5 7 29.81 1010 6 10 N/A
2:52 am 02:52 Clear 66 18.9 64 17.8 93 93 SSW 5 7 29.81 1010 7 11 N/A
3:52 am 03:52 Clear with Mist and Fog 65 18.3 64 17.8 97 97 SSW 6 9 29.81 1009 6 10 N/A
4:52 am 04:52 Clear 65 18.3 63 17.2 93 93 SW 5 7 29.81 1010 7 11 N/A
5:52 am 05:52 Mostly Clear with Mist and Fog 65 18.3 63 17.2 93 93 SSW 8 13 29.82 1010 6 10 N/A
6:52 am 06:52 Partly Cloudy with Mist and Fog 65 18.3 63 17.2 93 93 SSW 6 9 29.83 1010 5 8 N/A
7:52 am 07:52 Partly Cloudy with Mist and Fog 66 18.9 64 17.8 93 93 S 9 15 29.85 1011 6 10 N/A
8:52 am 08:52 Partly Cloudy 68 20 65 18.3 90 90 SSW 6 9 29.86 1011 7 11 N/A
9:11 am 09:11 Partly Cloudy 70 21 64 18 83 83 SW 6 9 29.85 1011 7 11 N/A
9:52 am 09:52 Mostly Cloudy 70 21.1 66 18.9 87 87 SSW 7 11 29.87 1012 7 11 N/A
10:52 am 10:52 Mostly Cloudy 72 22.2 66 18.9 82 82 SW 10 17 29.86 1011 9 14 N/A
11:52 am 11:52 Partly Cloudy 76 24.4 66 18.9 72 72 WSW 14 22 29.85 1011 10 16 N/A
12:52 pm 12:52 Mostly Cloudy 78 25.6 66 18.9 67 67 WSW 13 20 29.83 1010 10 16 N/A
1:06 pm 13:06 Mostly Cloudy with Thunderstorms 79 26 66 19 65 65 SSW 13 20 29.80 1009 9 14 N/A
1:29 pm 13:29 Mostly Cloudy 79 26 66 19 65 65 SW 16 26 29.80 1009 10 16 N/A
1:38 pm 13:38 Mostly Cloudy with Thunderstorms 77 25 64 18 65 65 SW 14 22 29.83 1010 10 16 N/A
1:50 pm 13:50 Windy with Storms Likely 72 22 64 18 78 78 WSW 23 37 29.83 1010 2 3 N/A
1:52 pm 13:52 Cloudy with Light Thunderstorms 69 20.6 62 16.7 78 78 WSW 17 28 29.82 1010 2 3 0.08 2.03
1:55 pm 13:55 Cloudy with Light Thunderstorms 68 20 63 17 83 83 SW 17 28 29.83 1010 2 3 0.09 2.29
2:03 pm 14:03 Windy with Storms Likely 66 19 63 17 88 88 W 24 39 29.85 1011 2 3 N/A
2:14 pm 14:14 Cloudy with Light Thunderstorms 64 18 61 16 88 88 WNW 14 22 29.85 1011 2 3 0.37 9.40
2:19 pm 14:19 Cloudy with Light Thunderstorms 66 19 61 16 83 83 WSW 6 9 29.85 1011 3 4 0.41 10.41
2:24 pm 14:24 Cloudy with Light Thunderstorms 66 19 61 16 83 83 WSW 8 13 29.85 1011 5 8 0.43 10.92
2:42 pm 14:42 Cloudy with Light Thunderstorms 66 19 63 17 88 88 SW 8 13 29.83 1010 7 11 N/A
2:52 pm 14:52 Cloudy with Light Thunderstorms 65 18.3 61 16.1 87 87 SW 10 17 29.82 1010 7 11 0.44 11.18
3:35 pm 15:35 Cloudy with Mist and Fog 64 18 61 16 88 88 S 7 11 29.83 1010 6 10 N/A
3:52 pm 15:52 Cloudy with Mist and Fog 64 17.8 61 16.1 90 90 N N/A 29.82 1010 6 10 N/A
4:52 pm 16:52 Cloudy with Light Rain 65 18.3 62 16.7 90 90 SSE 5 7 29.81 1010 5 8 N/A
5:13 pm 17:13 Cloudy with Thunderstorms 64 18 63 17 94 94 S 5 7 29.80 1009 3 5 0.02 0.51
5:41 pm 17:41 Cloudy with Heavy Thunderstorms 64 18 63 17 94 94 SSW 8 13 29.80 1009 2 3 0.12 3.05
5:52 pm 17:52 Cloudy with Light Thunderstorms 64 17.8 62 16.7 93 93 WSW 6 9 29.81 1010 4 6 0.20 5.08
6:00 pm 18:00 Cloudy with Heavy Thunderstorms 64 18 61 16 88 88 WSW 10 17 29.83 1010 2 2 N/A
6:31 pm 18:31 Cloudy with Light Thunderstorms 64 18 63 17 94 94 S 9 15 29.80 1009 4 6 0.32 8.13
6:52 pm 18:52 Cloudy with Thunderstorms 67 19.4 63 17.2 87 87 SSW 3 6 29.81 1010 7 11 0.32 8.13
7:09 pm 19:09 Cloudy with Haze 66 19 63 17 88 88 S 5 7 29.80 1009 6 10 N/A
7:52 pm 19:52 Mostly Cloudy with Haze 68 20 63 17.2 84 84 SSW 12 19 29.81 1010 6 10 N/A
8:52 pm 20:52 Mostly Cloudy with Mist and Fog 66 18.9 63 17.2 90 90 SSW 9 15 29.82 1010 5 8 N/A
9:52 pm 21:52 Partly Cloudy with Mist and Fog 64 17.8 62 16.7 93 93 SW 3 6 29.83 1010 5 8 N/A
10:39 pm 22:39 Mostly Cloudy with Light Thunderstorms 64 18 63 17 94 94 WSW 7 11 29.88 1012 4 6 N/A
10:45 pm 22:45 Cloudy with Heavy Thunderstorms 64 18 63 17 94 94 WSW 17 28 29.88 1012 2 3 0.09 2.29
10:52 pm 22:52 Cloudy with Heavy Thunderstorms 65 18.3 60 15.6 84 84 W 8 13 29.88 1012 3 4 0.42 10.67
11:00 pm 23:00 Cloudy with Light Thunderstorms 64 18 61 16 88 88 SW 7 11 29.88 1012 4 6 0.16 4.06
11:14 pm 23:14 Mostly Cloudy with Mist and Fog 63 17 63 17 100 100 SSW 6 9 29.85 1011 6 10 0.17 4.32
11:52 pm 23:52 Partly Cloudy with Mist and Fog 64 17.8 62 16.7 93 93 SSW 7 11 29.88 1012 5 8 0.17 4.32

Powered by AerisWeather